Theta_e
349 350 355 356 356 356 356 356 355 355 355 355 354 354 355 355 355 355 355 355 355 355 355 354 353 352 352 352 352 352 352 351 351 350 350 349 349 349 348 349 349 350 351 351 351 351 351 351 350 349 349 349 349 349 348 347 345 346 346 344 345 347 347 346 346 346 346 345 343 344 344 344 344 343 342 341 341 341 341 341 339 337 339 340 340
347 353 356 356 356 356 356 355 355 355 355 354 354 354 354 354 355 355 355 355 355 355 354 353 352 352 352 352 352 351 351 351 350 349 349 349 348 348 348 348 348 348 350 350 350 351 350 349 348 348 349 349 348 348 347 346 345 345 344 344 345 346 346 347 346 345 345 343 342 343 342 342 342 343 342 339 338 339 337 337 338 337 338 339 337
352 353 356 356 356 356 355 355 355 354 354 354 354 354 354 353 353 354 354 354 354 353 353 352 351 351 351 351 351 351 351 350 350 350 349 348 348 348 348 348 348 348 349 348 349 348 348 348 348 347 347 348 347 347 346 345 344 344 344 344 344 344 345 345 345 343 343 343 342 342 341 341 342 342 340 337 337 337 336 336 338 338 336 338 336
350 353 355 356 356 355 355 355 355 354 354 354 353 353 353 352 352 352 353 353 353 352 352 351 351 351 351 351 351 351 350 349 350 349 349 349 348 347 348 348 349 349 348 348 348 348 347 347 348 347 348 347 347 347 346 345 345 345 345 344 344 344 345 344 344 343 344 344 343 342 342 341 341 340 339 341 340 340 340 340 339 338 339 340 336
351 353 355 356 356 355 354 354 354 354 353 353 353 352 352 352 352 352 352 352 352 352 351 351 351 351 350 350 350 350 350 350 349 349 349 349 349 349 349 349 348 348 347 347 346 346 348 348 348 347 347 347 347 347 346 346 345 344 344 344 344 344 343 343 342 342 342 343 341 341 339 339 340 339 340 341 341 340 340 339 339 340 340 340 336
352 354 355 355 355 356 354 354 354 354 354 353 353 353 352 352 352 352 352 351 351 351 351 351 351 351 350 349 350 351 350 349 349 348 348 351 350 349 348 348 349 349 348 349 349 349 347 347 348 347 346 347 347 346 346 346 345 344 344 344 344 343 342 342 342 343 342 341 340 341 340 341 339 339 341 341 340 339 338 338 338 338 338 339 336
353 354 355 355 355 355 354 354 354 354 354 353 352 352 353 352 352 352 352 351 350 350 351 351 350 350 349 349 351 351 351 350 349 349 350 350 349 349 349 348 348 349 349 348 349 349 347 346 347 347 347 347 347 346 345 344 344 344 344 344 344 343 342 342 341 341 341 341 341 340 339 339 339 337 339 339 339 340 340 341 340 340 340 340 336
353 353 354 355 356 355 354 353 354 353 353 353 352 353 353 352 352 352 351 350 351 351 351 351 351 350 350 351 351 351 350 350 349 349 350 350 350 350 349 349 348 347 347 348 348 347 347 348 348 347 348 348 347 346 344 343 344 344 343 343 344 343 342 341 341 341 339 339 340 340 341 341 342 339 340 340 340 340 339 338 338 337 338 339 338
351 353 354 354 355 354 354 353 353 353 353 352 352 352 352 352 352 352 352 352 351 350 351 352 351 351 351 350 350 350 348 348 348 350 351 350 350 350 349 350 349 347 347 348 349 348 348 347 348 348 348 348 347 346 344 343 343 343 344 345 345 344 341 341 341 339 339 340 340 340 341 341 342 342 342 340 341 340 336 336 338 338 337 338 335
351 353 354 354 355 354 353 353 353 353 353 352 352 352 352 352 352 352 352 352 351 351 352 351 352 352 351 349 350 349 349 349 348 349 350 350 350 351 350 350 348 348 347 347 347 347 347 347 347 347 348 347 346 346 345 344 344 344 345 345 344 344 343 340 340 340 341 340 339 341 343 341 339 338 339 339 338 336 337 339 338 338 339 338 335
352 353 354 354 355 353 353 353 353 353 353 353 353 352 353 352 352 352 352 352 352 352 352 350 349 351 350 350 349 348 348 349 349 349 350 350 350 351 350 349 348 348 347 347 346 346 346 346 346 346 346 346 345 345 344 344 343 343 343 343 343 343 344 344 342 340 340 339 340 343 341 339 340 339 339 339 339 340 339 337 340 339 339 338 336
351 353 354 354 354 352 352 352 353 353 353 352 353 352 352 352 352 352 352 352 351 351 351 351 351 351 350 350 349 348 347 347 348 349 349 349 351 350 349 348 348 348 347 347 347 347 346 346 345 345 344 345 344 344 343 343 342 342 342 342 342 343 343 343 342 342 340 339 340 342 340 338 340 339 340 340 339 339 339 339 338 338 340 338 335
350 353 355 355 354 352 351 352 353 353 353 353 353 352 352 352 352 352 352 351 351 351 351 352 351 350 350 349 348 348 348 349 349 349 347 348 350 349 348 348 347 347 347 347 346 346 346 345 345 344 344 344 344 343 342 342 341 341 342 342 342 343 342 342 341 342 339 339 341 341 339 342 342 339 339 338 338 338 338 338 337 339 339 338 335
350 352 353 354 354 353 351 351 351 353 353 353 352 352 352 352 352 352 351 351 351 350 351 351 351 350 349 351 350 349 348 347 348 347 346 348 349 349 349 348 347 347 347 347 346 346 346 345 343 343 342 342 341 341 341 341 341 341 342 343 343 341 342 343 344 342 339 339 342 339 341 342 342 342 339 338 339 339 339 339 338 339 339 338 336
349 351 353 353 350 351 353 352 351 352 352 352 352 352 351 351 351 351 351 351 351 351 351 351 351 350 349 350 350 348 347 346 346 348 347 347 349 349 348 349 348 347 347 347 346 346 345 344 344 342 341 340 339 339 339 341 341 342 342 344 343 342 342 342 340 342 339 340 340 338 339 341 341 342 338 338 340 339 340 339 339 338 337 337 336
350 352 353 353 353 353 353 353 352 351 352 352 352 351 351 351 351 351 350 351 351 351 351 351 349 350 349 348 347 347 347 345 344 345 348 349 349 348 349 348 348 347 347 347 346 345 344 343 342 341 341 340 340 340 341 341 342 343 343 344 344 341 340 344 343 342 341 341 341 341 339 341 342 342 340 339 338 338 338 338 337 336 335 335 336
349 351 352 351 352 351 350 349 350 351 351 351 351 351 350 350 350 350 350 350 351 350 348 347 346 347 347 346 346 347 346 345 345 346 348 348 348 348 347 347 347 347 347 346 346 345 344 343 342 342 342 341 341 341 341 341 342 342 343 344 344 341 340 340 342 343 341 340 339 339 340 340 341 343 339 339 338 338 338 337 337 336 338 337 336
347 348 348 348 349 349 350 351 352 353 351 352 351 350 350 350 349 350 350 349 349 348 347 344 344 344 346 345 344 346 346 347 348 348 347 348 348 348 347 346 346 346 346 346 346 344 343 343 342 342 342 342 342 342 340 340 340 341 341 342 343 342 340 339 344 343 341 340 340 340 340 342 342 341 339 339 338 337 337 336 335 336 336 336 336
345 346 346 346 347 348 349 351 351 351 352 351 351 351 349 350 349 349 349 349 348 346 344 343 342 342 344 346 347 347 347 348 347 348 347 347 347 347 347 347 346 346 346 345 345 344 343 343 343 342 342 342 342 341 339 339 339 340 340 342 343 343 341 340 343 341 341 341 342 341 341 340 343 341 339 339 337 337 336 336 336 336 336 336 335
343 344 344 345 346 347 348 349 350 351 349 349 349 349 349 349 349 349 349 348 347 344 343 344 344 343 345 346 346 347 347 348 347 348 347 347 347 345 347 346 345 346 345 345 345 345 344 343 342 341 342 342 341 340 339 339 339 338 339 342 343 343 344 343 342 341 341 340 342 342 340 340 341 340 339 338 337 337 336 336 336 336 336 337 337
340 342 344 344 345 347 346 347 350 350 347 347 349 349 350 349 349 348 347 346 345 344 344 345 344 345 346 346 345 349 350 348 348 347 347 348 346 346 346 346 345 345 345 345 344 344 344 344 343 342 342 340 338 337 337 337 336 336 337 339 341 345 346 344 343 342 341 340 340 340 339 341 339 339 340 338 337 336 336 336 336 336 335 336 336
339 340 343 345 345 345 346 346 345 346 348 349 350 347 350 349 350 349 349 347 345 346 347 347 346 350 346 347 349 349 349 349 348 346 347 348 347 346 346 345 345 345 345 344 344 344 344 344 343 342 341 339 337 342 341 336 334 334 335 335 343 344 345 344 344 342 341 342 341 341 338 340 339 339 339 339 337 336 335 335 336 336 336 335 336
336 339 341 344 345 345 346 344 345 344 346 346 349 350 349 349 349 349 348 346 347 349 350 348 348 348 348 347 347 348 348 347 348 347 347 345 347 346 345 345 345 344 344 344 343 343 343 343 341 339 338 337 341 340 338 336 337 334 335 339 343 344 344 344 344 344 341 342 341 340 339 341 340 339 339 338 338 336 335 335 337 336 335 335 335
336 338 340 342 343 343 342 343 342 344 344 346 349 347 348 349 348 347 347 347 347 347 346 347 348 348 347 347 347 348 347 348 344 345 346 348 348 345 344 345 344 344 343 344 344 344 343 341 339 338 338 342 340 338 336 335 337 337 337 336 338 343 344 344 342 343 343 340 339 338 339 341 340 339 339 338 338 336 336 334 336 334 334 334 334
335 336 339 337 338 341 342 342 343 344 345 345 345 346 346 346 346 346 345 345 344 344 346 345 346 346 347 347 347 347 346 347 349 347 348 347 347 347 347 346 344 345 344 343 343 343 342 342 342 339 341 340 338 337 338 336 338 337 337 336 337 341 345 344 342 341 343 343 343 338 340 342 341 340 338 338 337 336 336 334 333 333 333 334 333
332 333 337 334 336 343 345 344 343 343 345 345 344 344 345 343 343 343 343 343 343 343 344 345 345 345 346 346 346 345 345 345 347 346 344 345 345 346 344 345 344 343 344 342 341 342 341 341 340 339 339 339 338 338 338 337 336 336 336 337 336 338 344 343 343 342 343 343 345 338 340 342 341 341 338 337 337 337 335 334 333 333 333 333 333
334 331 332 333 336 342 344 344 342 343 343 344 345 344 343 343 343 343 341 342 343 342 342 343 344 345 346 346 344 344 344 344 344 344 343 344 344 345 343 342 341 342 343 341 341 341 341 339 339 340 339 338 336 337 337 337 336 333 335 335 336 337 342 344 343 343 343 343 342 338 341 342 341 341 338 337 337 336 335 334 334 333 332 331 332
334 333 335 337 338 342 344 343 342 342 343 344 343 343 342 342 343 343 342 342 342 342 342 343 343 344 345 345 345 345 343 342 343 342 341 342 342 342 342 340 341 341 343 342 340 339 340 342 341 340 338 337 335 337 336 335 334 335 334 336 336 338 341 343 344 344 344 345 344 340 341 342 342 342 339 337 337 336 334 335 334 334 331 331 332
334 334 334 335 338 342 343 343 342 342 343 343 342 342 341 342 343 342 341 342 342 342 341 342 342 343 344 345 345 343 343 343 342 339 336 338 340 342 341 340 340 341 341 339 341 340 342 341 341 340 340 338 337 337 336 334 334 335 333 334 335 336 339 342 343 342 342 344 344 342 341 341 342 341 340 338 336 336 335 335 334 334 332 331 331
334 333 336 337 339 341 341 341 342 341 342 342 341 341 341 341 341 341 341 342 341 340 340 341 342 342 343 343 343 343 343 342 341 339 338 336 337 338 341 341 340 341 340 340 341 342 343 342 341 340 336 337 336 337 336 334 331 334 333 334 335 335 338 339 341 340 341 342 344 343 340 341 340 341 341 338 337 336 335 335 334 333 333 332 330
334 333 335 336 339 340 340 340 340 342 341 340 341 340 341 340 339 340 341 341 340 339 339 340 340 341 341 342 341 341 343 342 340 341 341 338 336 338 342 342 341 341 341 340 341 342 342 341 342 342 339 339 336 337 335 335 333 331 333 331 333 336 336 339 339 341 341 342 343 344 342 341 341 338 339 338 340 337 334 334 334 334 333 333 332
333 332 335 337 339 340 338 340 341 342 341 338 340 339 339 339 339 340 341 340 340 340 339 339 339 340 340 340 340 341 339 337 337 335 338 335 337 339 340 341 341 340 340 341 341 340 340 337 339 339 339 340 338 338 338 335 333 331 332 331 332 334 335 338 337 339 341 343 342 343 343 343 340 338 339 338 338 338 337 334 334 334 334 333 333
334 334 334 336 338 341 340 341 342 343 341 340 339 339 340 339 339 339 340 339 339 338 337 338 337 338 340 339 339 338 335 337 336 334 333 333 333 334 338 339 339 339 339 339 339 338 340 339 339 339 338 338 338 337 335 337 334 333 334 332 333 331 334 335 338 340 341 342 342 342 342 342 344 338 336 340 337 338 340 335 334 334 332 333 333
332 334 336 336 338 342 343 342 342 341 341 340 340 339 340 339 339 340 340 339 338 338 338 338 337 338 339 338 338 335 335 337 335 332 332 333 334 335 337 337 338 338 338 338 338 339 339 338 338 338 336 336 335 335 334 333 332 333 335 335 336 337 335 334 338 340 342 342 342 343 341 340 341 343 342 340 339 337 336 340 335 334 334 332 332
333 334 334 336 340 342 342 341 342 342 342 340 339 339 340 339 339 339 339 338 338 338 337 335 336 338 338 337 336 335 335 335 335 334 336 336 334 335 336 337 337 337 337 337 337 337 337 337 337 337 338 336 335 334 333 333 332 332 334 337 335 334 336 336 337 338 339 343 344 343 343 341 341 341 341 342 341 338 336 338 337 337 335 334 333
333 335 336 338 339 342 343 342 342 341 342 340 339 340 339 339 339 339 338 338 337 337 337 336 337 338 337 336 336 336 336 336 336 336 334 334 333 334 334 335 335 336 337 336 336 336 336 335 335 337 337 335 334 333 333 332 333 333 335 337 337 337 336 336 337 337 338 340 340 343 343 343 343 341 341 341 342 340 336 337 337 338 338 335 334
335 337 338 338 338 341 342 341 341 341 340 339 338 338 338 338 338 338 338 338 338 337 337 337 337 337 338 338 337 337 336 336 336 335 334 333 333 333 335 334 334 335 335 335 335 334 334 334 334 335 336 335 333 331 332 332 332 333 334 334 335 336 336 336 336 337 337 339 340 340 342 342 342 340 342 342 342 342 338 337 337 336 336 338 337
336 337 338 338 339 340 341 341 341 340 339 338 337 337 337 337 337 337 338 338 338 338 338 338 338 337 338 337 337 337 336 335 335 335 335 334 334 335 335 335 334 334 333 333 334 334 333 333 333 334 334 334 334 332 331 332 330 331 332 332 334 334 334 335 336 335 336 337 339 339 340 343 341 339 341 341 341 342 342 338 336 335 335 335 337
335 336 338 339 340 340 340 340 339 338 337 336 336 334 334 335 335 336 336 337 338 338 339 339 338 338 337 336 335 336 335 335 335 335 336 335 334 334 333 332 332 334 332 332 332 333 332 332 333 333 333 333 333 333 334 334 332 331 330 331 331 332 334 333 335 335 335 337 337 337 337 340 341 341 341 340 340 340 340 342 341 340 339 334 336
334 336 337 338 339 339 339 338 337 336 335 334 334 333 333 333 332 334 335 335 336 336 338 337 338 336 336 336 335 335 335 335 334 335 335 334 333 332 332 332 332 332 331 331 331 332 330 330 330 332 333 330 329 329 329 331 333 332 332 333 333 334 333 334 333 332 334 335 336 337 338 339 340 341 341 341 338 339 339 338 340 340 340 337 334
333 334 336 337 338 337 337 335 335 335 335 333 332 332 332 331 333 332 331 333 334 336 335 335 336 336 336 335 335 335 334 334 334 334 334 334 332 331 331 331 331 331 330 330 331 330 330 330 330 330 331 330 327 329 330 331 330 328 330 329 331 335 336 335 331 332 332 334 335 334 335 337 338 339 340 341 340 339 336 337 337 335 335 338 338
330 332 335 336 337 338 337 334 335 335 335 334 333 334 334 334 334 333 332 331 333 333 331 331 331 331 334 336 337 336 335 336 334 333 333 333 332 331 331 330 330 330 331 331 331 330 329 330 330 329 331 332 328 327 330 329 326 326 325 325 327 331 335 334 330 330 332 332 334 335 336 335 334 336 337 337 338 337 336 337 336 335 334 336 337
331 330 335 336 336 338 337 334 335 335 335 335 336 334 334 335 335 333 332 328 327 329 327 328 329 327 330 330 333 335 335 335 334 333 332 331 330 331 331 331 330 331 330 330 331 330 329 329 329 328 328 332 331 329 329 331 326 327 328 324 322 322 328 330 332 332 332 333 332 331 332 334 332 335 337 335 335 334 334 336 336 335 335 335 336
330 330 333 336 336 337 336 335 335 335 334 335 334 333 332 332 331 331 330 330 326 326 327 328 328 328 327 329 329 331 333 335 334 333 332 331 333 333 331 330 330 331 330 329 329 328 330 330 330 329 328 326 328 328 329 329 329 326 320 320 322 320 318 323 327 330 333 332 332 330 331 331 332 334 335 334 334 334 333 334 334 336 334 335 334
329 330 332 334 335 337 337 337 336 335 335 334 332 331 329 329 328 329 328 327 327 327 326 325 328 327 326 328 327 329 331 334 336 335 333 332 332 333 331 330 329 329 330 330 329 329 329 329 329 329 328 327 326 329 328 329 328 330 328 322 320 319 319 323 324 327 330 329 330 330 332 331 332 333 332 332 335 334 334 334 336 335 335 336 335
328 329 331 329 327 325 324 323 324 331 333 331 330 329 329 329 328 327 325 325 323 324 323 323 323 325 324 326 326 327 330 332 334 334 333 333 332 330 330 330 330 330 330 329 329 328 328 328 329 329 328 328 328 328 325 327 329 329 329 328 326 319 320 323 323 319 328 329 330 330 331 331 333 334 334 333 332 331 332 332 333 332 333 334 335
326 328 329 329 328 326 324 322 320 322 324 326 327 327 328 330 331 330 328 327 324 324 324 326 325 323 325 325 324 326 326 331 331 332 333 333 332 331 332 332 332 331 330 330 329 329 328 328 329 329 329 329 328 325 325 325 327 327 327 327 328 327 327 323 319 323 321 326 329 330 328 327 328 331 332 331 331 331 330 330 330 331 331 332 334
325 327 328 328 328 327 325 323 321 321 321 322 324 327 328 330 330 329 328 327 325 323 325 325 326 324 322 323 324 325 325 327 328 328 329 330 330 329 329 329 328 327 328 329 330 329 329 328 327 328 329 329 331 328 326 328 323 324 326 326 326 327 327 324 323 322 321 319 321 326 325 324 325 326 329 329 328 329 330 332 331 330 332 332 334
324 325 326 326 327 327 329 326 322 322 321 322 322 324 327 328 328 327 324 324 326 325 325 325 323 324 322 322 324 323 324 325 325 326 327 327 327 326 326 327 327 327 325 324 324 325 328 330 329 328 328 327 328 327 326 324 325 323 325 327 325 324 324 324 324 326 323 321 318 320 320 322 319 320 320 320 320 320 321 322 323 324 327 329 331
324 324 325 326 327 328 326 324 324 324 321 321 322 323 324 324 325 326 324 323 324 324 324 323 322 323 322 322 323 323 323 324 324 325 325 324 325 325 325 325 326 325 323 324 325 326 326 327 327 328 327 327 326 326 325 324 325 326 326 325 324 323 323 323 322 322 321 322 316 314 319 319 311 312 317 316 318 317 317 319 319 320 324 328 328
323 324 325 327 328 326 324 322 323 323 321 321 320 321 322 323 324 325 325 324 325 324 322 322 321 322 321 321 322 322 323 323 324 324 325 325 326 326 326 325 326 326 323 322 324 323 324 324 323 324 324 325 326 326 323 323 324 324 323 322 319 320 320 318 320 322 320 316 315 314 316 314 311 310 313 316 317 314 314 315 315 316 317 319 321
Wind_Speed
10 13 14 17 16 16 16 16 15 15 16 18 20 19 18 17 17 17 17 17 17 17 17 17 18 19 18 18 18 17 17 17 16 16 16 16 16 15 14 14 13 15 14 15 13 13 14 13 12 12 13 13 13 13 14 12 11 11 11 10 12 12 11 14 13 13 13 12 13 12 12 13 13 13 13 13 13 13 12 11 9 10 10 12 15
16 14 12 16 16 16 16 17 16 15 15 16 20 20 21 19 17 17 17 17 16 16 17 18 18 18 17 17 17 17 17 17 16 16 16 15 15 15 15 14 14 13 15 15 14 14 13 13 12 12 12 12 13 13 13 13 12 12 12 11 11 12 11 11 12 13 13 12 12 13 12 13 12 12 13 12 12 13 12 11 10 8 9 14 14
14 14 14 16 17 17 16 17 17 16 15 16 17 19 20 21 19 17 17 17 16 16 17 18 17 17 17 17 17 17 16 15 15 16 16 15 15 15 15 14 14 14 14 14 13 13 13 12 12 12 12 13 13 12 12 12 12 12 12 11 11 11 10 11 11 12 12 13 12 12 13 12 12 12 12 12 11 11 12 12 12 11 10 14 14
15 13 14 17 18 17 16 16 16 17 16 15 17 18 19 20 20 19 18 16 16 16 16 16 16 16 16 16 17 17 16 15 15 15 15 15 16 15 15 15 15 15 14 13 13 13 12 12 12 12 12 12 12 12 12 12 13 11 11 11 10 10 11 11 11 11 11 10 10 9 8 9 10 11 12 13 12 12 12 13 13 14 15 15 15
15 13 14 14 16 16 16 16 16 18 17 15 15 18 19 20 20 19 19 16 15 15 16 16 16 16 16 16 16 17 17 15 14 14 14 12 14 15 14 15 15 15 15 14 14 13 13 13 12 12 12 12 12 12 13 12 12 11 11 11 11 10 9 9 10 10 10 9 6 6 7 9 8 11 12 13 13 12 12 12 12 13 14 16 15
15 14 14 13 15 16 16 16 16 18 17 17 17 17 17 18 20 20 18 17 18 17 16 16 16 15 15 16 16 16 16 16 15 14 13 12 12 14 15 14 15 15 15 15 15 14 13 12 12 12 12 12 13 13 12 12 11 11 11 10 10 9 9 10 10 9 9 8 4 7 7 7 8 8 11 11 12 11 11 12 12 12 13 14 14
16 13 13 13 13 15 16 16 16 17 17 17 18 18 18 17 18 17 17 18 17 17 16 16 15 15 15 16 15 15 16 16 16 16 14 12 11 12 13 12 12 13 13 15 16 15 14 13 14 13 13 13 14 13 12 11 11 10 10 10 9 9 8 8 9 9 7 6 7 7 6 7 7 6 10 11 11 12 12 12 11 12 13 13 14
13 12 12 12 12 16 16 16 16 17 18 18 19 19 18 18 17 17 17 17 16 16 15 15 14 14 14 15 15 15 16 16 16 15 13 11 11 11 12 16 16 15 14 13 14 14 14 14 13 13 13 14 14 12 11 11 10 9 9 11 10 8 8 8 9 8 4 6 6 6 5 6 7 6 9 10 10 11 12 12 12 12 13 13 12
12 12 12 12 14 20 16 16 15 16 17 18 18 18 18 18 17 17 17 17 16 15 15 14 15 15 14 15 14 14 13 14 15 13 11 11 11 10 11 13 14 13 13 14 13 11 12 13 13 13 13 14 14 12 10 9 9 8 9 7 8 9 8 8 7 6 5 6 6 6 6 7 7 7 9 9 11 11 9 9 11 12 13 13 12
13 13 13 11 15 19 17 17 16 17 16 18 18 18 18 18 17 17 17 17 16 14 13 14 15 14 14 14 14 14 15 14 14 13 12 12 11 9 10 13 14 14 14 14 15 13 11 12 12 13 14 14 13 12 9 7 6 5 5 5 5 6 7 7 6 3 5 5 6 6 6 5 6 6 9 9 10 10 10 12 11 11 12 14 14
13 12 12 13 18 17 16 16 16 16 16 17 18 18 18 18 18 17 17 16 16 14 13 14 14 14 13 14 14 13 15 14 13 14 13 10 10 11 13 13 13 13 13 13 13 13 12 11 13 13 13 13 12 11 10 8 5 4 4 4 4 3 5 6 4 4 4 5 6 5 7 5 5 6 9 10 10 9 9 9 12 12 13 13 14
13 12 11 12 18 16 14 14 14 14 16 16 17 18 18 17 18 18 16 16 16 15 13 12 12 13 14 14 13 14 14 14 13 13 11 10 12 13 14 14 13 13 13 12 12 13 12 12 12 12 12 12 10 10 10 7 5 4 3 2 3 3 4 5 3 4 4 5 6 5 6 5 7 8 10 10 10 9 10 10 10 12 12 12 12
13 12 11 13 14 16 15 15 15 15 15 16 15 16 16 16 18 18 16 15 14 14 14 12 11 11 12 13 12 11 12 12 11 11 11 10 12 13 14 14 13 13 13 12 12 13 12 12 12 12 12 11 11 10 8 7 3 1 2 1 0 1 4 7 4 4 5 5 5 5 6 5 6 9 9 8 9 9 8 9 10 11 12 13 13
13 12 11 12 11 16 14 15 14 14 14 14 14 14 14 14 15 16 15 15 15 14 13 12 11 10 10 11 11 11 10 10 7 9 9 10 12 13 13 13 13 13 13 12 12 13 13 13 12 11 10 11 10 9 7 6 3 2 1 0 1 2 6 6 4 4 5 5 5 6 6 5 6 5 9 8 8 9 9 10 11 11 12 12 13
13 14 11 11 12 11 16 15 15 15 15 15 14 14 14 13 13 14 15 15 15 14 13 11 11 11 11 11 11 12 13 11 9 8 9 10 12 12 12 13 13 13 12 12 13 13 13 13 12 11 10 10 9 8 7 5 3 2 0 0 1 3 6 3 4 4 5 5 5 6 6 5 7 5 7 8 9 9 10 10 10 10 11 10 11
13 12 11 10 10 10 9 11 11 12 13 14 15 15 15 14 14 14 14 14 15 14 12 11 11 10 10 11 10 10 12 11 9 7 8 11 12 11 11 12 12 13 12 12 13 13 13 13 11 10 9 9 9 8 6 5 3 1 2 2 1 3 4 3 4 4 4 4 5 5 5 6 5 8 8 8 8 9 8 9 10 10 10 10 12
12 12 11 10 10 9 8 8 10 14 13 13 14 15 14 14 14 13 13 13 13 13 13 13 11 10 11 12 11 11 11 10 10 9 10 11 12 11 11 12 12 12 12 12 13 13 12 12 11 10 9 9 9 8 7 6 4 2 3 3 1 3 3 3 3 4 3 4 4 4 4 6 6 3 8 8 8 9 8 7 8 9 10 10 10
12 12 11 10 9 8 8 8 9 9 11 13 13 13 13 13 13 13 13 13 14 14 14 13 11 9 8 12 10 10 10 10 10 9 10 9 9 10 11 11 11 11 11 11 12 12 11 11 10 9 9 8 8 8 7 6 4 3 3 4 1 3 4 1 3 3 3 4 3 4 4 5 3 5 7 8 8 8 8 8 7 9 8 9 10
10 11 10 10 9 8 8 7 7 9 10 9 8 11 14 13 13 13 14 14 15 15 14 12 11 10 8 9 10 12 11 11 10 9 8 9 10 10 9 10 10 10 10 10 11 11 10 10 9 8 8 8 7 7 6 6 5 3 4 3 0 4 5 4 3 3 4 3 3 3 4 4 2 6 7 7 7 7 8 8 8 8 8 9 8
9 10 10 8 9 9 8 6 6 8 8 7 9 10 12 13 14 14 15 15 15 16 13 13 12 11 9 10 11 11 10 10 11 9 9 8 8 9 9 10 10 10 9 9 10 10 10 10 8 8 7 7 8 8 7 7 6 5 5 3 1 5 4 3 2 3 2 2 2 2 6 2 1 7 8 7 8 8 8 8 7 7 8 8 9
8 9 9 8 9 10 9 8 7 7 8 8 8 10 10 14 13 14 14 13 14 15 13 13 11 12 12 9 6 7 7 8 8 8 10 8 7 8 9 9 9 9 9 9 8 9 10 9 9 8 9 8 6 6 6 7 6 6 5 3 2 3 2 3 3 2 2 3 3 3 5 1 4 6 7 7 7 7 8 8 7 7 7 8 7
9 8 8 8 8 8 9 9 7 7 7 7 5 7 9 11 11 12 11 11 11 12 11 9 10 7 9 7 6 6 6 6 6 7 6 8 8 7 8 8 8 8 8 8 8 8 8 9 10 10 8 6 2 1 3 4 4 6 5 2 2 1 3 3 3 3 3 2 3 5 3 0 4 6 7 7 7 6 6 7 7 6 7 7 7
9 8 7 8 7 7 8 7 8 6 6 5 4 6 8 8 10 10 10 10 10 9 7 8 7 7 7 6 5 5 5 5 5 5 5 6 8 7 8 8 8 8 7 8 7 7 7 10 11 8 7 3 1 2 2 2 3 2 2 0 1 1 2 3 4 3 3 2 2 7 3 2 4 5 6 7 8 6 5 6 8 6 6 7 7
9 6 5 3 5 6 8 6 6 8 6 5 6 6 7 8 8 8 8 8 7 6 7 7 6 6 6 6 5 5 5 4 7 9 7 5 6 6 7 9 9 8 6 6 7 8 9 11 9 5 2 1 1 1 1 2 2 2 2 1 0 0 2 3 3 3 2 4 2 7 4 3 5 5 5 6 7 6 5 5 8 6 6 6 6
7 4 2 2 3 7 7 7 7 8 9 7 7 6 6 7 7 6 7 7 7 7 6 6 6 7 6 5 5 5 5 4 4 4 3 4 4 3 3 3 4 5 4 4 3 4 2 3 3 2 1 1 1 2 1 2 2 1 1 1 0 0 2 2 3 3 3 2 3 6 5 4 5 5 5 6 6 5 6 5 5 5 5 5 6
9 5 2 2 4 5 8 8 8 8 7 7 7 7 7 7 7 7 7 6 7 6 6 5 5 6 5 5 5 5 5 4 5 4 4 3 3 3 3 3 3 3 3 3 3 2 2 1 1 1 1 1 2 2 2 2 2 1 1 1 1 1 2 2 3 3 3 2 4 6 4 4 5 5 4 6 6 5 6 6 5 5 4 5 5
9 13 14 12 9 7 9 9 8 7 7 8 7 7 6 6 6 6 6 5 5 5 5 5 5 5 5 5 5 5 4 4 4 4 4 3 3 2 3 3 3 2 1 2 3 2 1 2 2 2 1 1 2 3 2 2 1 1 2 2 2 3 2 3 3 3 3 3 4 8 5 5 4 5 5 5 6 5 5 6 5 5 4 4 4
8 4 5 3 7 9 10 10 9 8 7 7 7 7 6 7 6 7 5 6 5 5 5 5 5 5 5 4 4 4 4 4 4 4 4 3 3 4 3 4 3 3 1 1 3 3 2 1 1 1 1 1 2 2 2 2 1 1 2 2 3 3 3 3 2 2 3 3 3 7 6 5 4 4 5 4 6 6 5 6 5 5 5 4 3
8 9 10 8 8 8 9 10 10 10 8 7 7 6 7 7 7 6 6 6 5 5 5 5 5 4 5 4 4 3 3 3 4 4 1 3 3 2 3 3 3 3 3 3 2 3 3 2 1 0 1 1 2 2 1 2 1 1 1 3 3 3 3 3 2 3 3 2 3 5 6 6 4 4 4 4 4 5 5 6 6 6 4 4 3
8 10 8 7 8 9 9 10 10 10 9 8 7 7 7 7 6 6 6 6 5 4 5 5 4 4 4 3 3 2 3 3 4 5 6 5 4 4 4 4 4 4 4 4 3 2 3 2 1 2 1 0 1 1 0 1 2 1 1 2 3 3 3 3 3 3 3 2 2 4 6 6 4 4 2 2 4 4 6 6 6 6 5 4 4
10 10 8 8 7 9 9 9 9 8 8 8 7 7 7 7 7 6 6 5 5 5 5 5 4 4 3 3 3 2 2 4 4 4 4 4 4 4 4 3 3 3 4 3 2 1 2 1 1 1 1 2 2 1 1 1 1 1 1 2 2 2 3 3 4 4 4 3 3 3 6 8 6 5 3 1 2 3 4 5 6 6 6 6 5
9 10 8 7 8 8 9 8 8 8 7 7 7 7 7 7 7 6 5 5 6 5 4 3 3 2 4 3 3 3 3 2 2 1 1 0 2 3 2 3 3 2 2 2 2 1 1 1 2 1 1 0 2 2 1 1 1 1 1 1 2 3 3 3 3 4 3 3 2 3 4 6 8 6 5 3 3 1 3 3 4 6 7 6 6
6 8 9 9 9 9 7 8 8 9 9 8 8 7 7 7 7 6 5 5 5 4 4 4 3 2 2 3 3 3 2 1 2 2 1 2 2 4 4 3 2 2 2 2 2 1 1 1 1 1 2 2 3 2 1 1 1 1 0 1 1 3 2 3 3 3 4 4 3 3 3 4 5 8 5 4 4 2 1 2 3 3 3 5 5
8 8 9 10 9 6 6 7 8 9 9 8 8 7 7 6 6 6 5 5 5 4 3 3 3 3 3 3 4 2 2 2 2 3 3 3 3 4 4 3 3 2 2 2 2 1 1 1 1 1 2 2 2 1 1 2 1 1 0 1 1 0 1 2 1 1 2 3 3 3 3 4 4 4 6 7 4 4 3 3 4 3 3 2 4
8 9 10 10 9 7 7 6 8 8 8 8 8 7 7 6 6 6 5 5 5 4 3 3 3 3 3 3 4 3 3 2 4 4 4 4 3 3 3 2 3 3 2 2 1 1 1 1 1 2 1 1 2 0 1 1 1 1 1 1 1 0 1 2 2 2 2 2 2 3 3 4 4 4 4 5 7 5 5 4 5 4 5 4 4
10 10 9 10 9 9 9 8 9 9 8 8 7 7 7 6 6 6 5 5 4 4 4 4 3 3 4 2 2 2 3 3 2 2 2 1 2 3 2 2 3 3 3 2 1 1 1 1 1 2 1 1 2 1 1 1 1 1 1 0 1 1 1 1 1 2 2 2 3 2 3 3 4 4 4 3 4 6 7 6 6 5 4 5 5
9 8 10 11 11 10 9 9 10 9 8 8 8 7 7 7 6 5 5 5 5 4 4 4 4 4 3 3 3 2 3 2 2 3 2 2 2 2 3 3 3 3 3 2 1 1 1 2 1 1 1 0 1 1 0 1 1 1 1 1 1 1 1 1 0 1 1 2 2 3 3 3 3 2 3 3 3 3 8 6 7 5 4 6 6
8 8 9 10 11 10 9 9 8 8 7 8 8 7 6 6 5 5 5 5 5 4 4 4 4 3 3 2 3 2 2 2 1 2 2 1 1 2 3 3 3 3 3 2 1 1 1 2 2 1 1 1 0 1 1 1 1 1 1 1 2 1 2 2 2 1 1 2 2 2 2 1 2 3 2 2 2 2 3 7 6 5 5 6 7
6 9 8 10 9 9 8 8 7 8 8 8 8 7 7 5 5 6 6 6 5 4 4 4 4 3 3 3 3 2 2 3 2 0 0 2 2 3 3 4 2 2 2 2 1 2 2 0 1 2 3 3 2 1 1 0 0 1 1 2 1 2 2 2 2 2 1 1 1 2 2 2 2 3 3 3 1 3 3 3 4 5 6 8 6
9 9 10 10 9 9 7 5 6 8 8 8 7 6 5 6 6 6 6 5 5 5 4 4 4 4 3 3 3 2 2 3 3 3 2 2 2 2 3 3 2 2 1 1 2 1 2 2 1 2 3 5 1 1 2 1 2 2 1 1 1 1 1 2 2 2 2 2 1 1 2 2 2 3 3 3 4 2 1 3 3 3 2 6 4
10 12 11 12 12 10 9 7 7 8 8 7 6 6 6 6 4 5 6 5 5 5 5 4 3 3 3 3 3 2 3 3 3 3 3 3 3 3 3 2 2 2 2 1 2 2 1 1 1 1 2 3 2 2 2 1 2 3 1 2 2 0 0 1 1 1 1 2 1 2 1 1 1 2 1 0 1 2 3 2 2 1 4 5 4
8 10 12 12 12 12 10 8 7 8 8 8 6 6 4 2 3 3 4 3 5 6 5 3 3 3 2 2 2 2 2 2 3 3 3 3 3 3 3 3 2 2 2 2 4 3 3 2 2 2 1 2 3 2 1 3 4 5 3 3 3 2 1 1 1 1 1 0 1 1 1 2 2 3 3 3 3 4 4 3 3 2 1 1 3
7 7 6 7 9 10 9 8 7 8 7 8 8 5 2 2 2 4 4 4 4 3 4 3 3 4 3 3 2 2 3 3 3 3 3 3 3 3 3 4 3 3 2 2 2 4 3 3 2 1 2 2 1 1 3 4 4 2 2 2 4 4 3 3 3 2 1 2 1 2 1 2 1 1 1 3 3 3 3 3 2 3 4 2 2
5 7 5 6 7 9 9 9 8 8 7 7 6 6 6 6 6 5 4 3 5 5 5 4 4 5 4 3 3 2 2 3 4 3 3 3 2 2 3 3 3 2 2 2 2 2 2 3 3 3 1 3 3 2 3 1 2 3 4 5 1 3 4 5 4 2 1 1 1 2 2 2 1 1 1 1 4 4 3 1 0 1 3 4 4
5 5 3 2 1 4 7 10 8 8 7 7 8 8 8 7 6 6 6 7 5 5 6 5 4 4 3 3 3 2 1 3 3 3 3 3 2 2 2 3 3 2 2 2 3 3 3 3 2 2 3 2 4 3 3 2 2 3 2 2 3 4 2 2 1 2 1 2 1 0 1 3 3 2 2 3 3 3 2 2 2 3 3 4 5
7 7 6 8 9 9 12 14 12 4 5 6 8 8 7 8 8 7 6 5 5 5 5 5 5 4 3 2 3 2 2 3 2 3 2 2 2 2 2 2 2 2 1 2 3 3 3 3 2 2 3 0 1 4 3 3 1 2 2 3 4 3 3 1 3 2 2 3 2 2 4 4 4 4 5 5 6 6 5 3 2 2 1 0 0
11 10 9 10 10 10 10 10 10 3 5 4 5 6 6 7 8 7 6 6 6 3 2 3 5 3 3 3 3 2 2 3 3 2 2 2 3 2 2 1 1 1 1 1 3 3 2 2 2 1 3 2 2 2 3 3 3 2 2 3 3 2 2 1 1 0 3 3 4 3 7 8 8 7 5 5 5 5 4 3 4 4 3 2 3
12 10 9 8 9 10 11 11 10 7 5 3 1 4 7 7 6 5 4 5 5 5 5 4 4 5 4 3 3 3 3 3 3 3 3 3 3 3 3 2 2 2 2 2 2 2 2 2 1 1 1 1 1 1 1 1 3 2 1 1 2 3 5 3 2 2 2 3 4 5 8 10 11 8 7 7 7 6 6 5 4 3 2 2 3
8 8 8 8 9 10 10 6 7 7 6 4 4 4 3 6 6 6 5 3 5 5 5 5 5 4 6 3 3 3 3 3 3 4 4 4 4 4 3 3 3 3 2 3 3 2 3 3 3 3 3 2 3 2 2 3 2 2 3 2 2 0 3 3 3 1 1 3 3 2 6 8 10 8 7 7 6 6 6 5 4 4 3 2 3
9 11 9 8 8 7 7 10 8 6 6 6 4 3 2 4 6 7 8 6 5 5 5 6 5 4 6 4 4 3 3 3 3 4 4 4 4 4 4 4 3 3 3 4 3 3 3 4 3 3 2 2 2 2 2 2 2 2 1 1 1 3 3 3 2 4 4 3 4 4 4 6 8 6 6 6 6 6 6 6 7 7 6 6 5
9 8 8 8 9 8 10 11 8 6 6 6 6 6 5 5 7 8 9 9 8 7 7 6 5 5 6 5 4 3 2 3 3 3 4 4 4 4 4 4 3 3 3 4 4 4 4 4 3 4 3 3 2 3 4 3 2 2 2 2 3 2 3 3 2 2 3 5 7 6 6 8 10 9 7 6 6 8 8 8 8 8 8 7 7
Wind_Direction
159 150 153 142 143 139 134 131 127 124 125 124 123 123 121 116 111 110 108 109 111 111 115 119 127 128 126 124 123 117 114 114 114 115 115 116 119 121 123 126 125 126 124 122 121 119 114 110 109 108 109 107 111 112 110 108 110 110 99 89 82 80 92 97 99 97 96 96 99 98 96 96 91 92 92 86 82 81 75 65 69 70 66 65 59
155 153 151 143 140 135 133 132 127 127 126 123 123 124 123 120 116 114 111 114 114 115 121 127 128 126 124 123 120 117 117 117 116 116 115 116 117 120 124 128 128 124 123 120 120 118 116 113 112 112 110 112 112 114 112 114 109 100 99 99 91 91 92 97 100 98 94 93 99 99 94 90 92 93 92 90 88 81 76 71 59 69 66 63 61
146 150 150 141 137 134 133 131 129 129 126 124 122 122 121 124 124 121 119 119 121 122 126 128 128 127 124 123 121 120 119 118 119 117 115 115 116 118 121 123 121 118 118 119 114 114 113 114 113 114 115 114 113 111 112 111 105 103 97 98 98 94 82 91 94 98 100 102 97 93 97 95 94 95 95 94 92 84 76 72 69 65 73 70 69
145 147 146 139 137 134 132 131 129 128 128 126 125 123 122 124 125 124 124 122 122 126 129 127 126 125 126 124 124 120 119 119 118 118 120 122 122 121 119 118 119 118 118 117 115 115 115 113 116 115 116 116 117 115 116 113 105 103 99 101 100 91 73 77 92 96 84 81 98 115 101 100 96 87 89 94 94 84 79 77 74 71 73 77 75
142 144 140 141 139 134 133 131 128 129 129 127 124 124 123 124 125 126 128 127 126 127 128 129 127 129 129 126 123 121 120 120 119 119 120 119 118 121 122 124 126 128 128 126 123 118 116 118 115 118 120 121 118 119 117 110 105 102 105 105 99 90 87 94 93 89 80 83 69 103 96 93 95 94 93 90 89 89 87 80 76 75 76 77 74
141 142 142 142 141 136 133 131 129 129 129 128 126 124 124 126 127 128 127 129 131 132 133 133 132 131 128 126 124 125 125 126 126 124 122 118 122 126 129 130 130 132 133 130 122 121 120 120 121 121 123 120 122 121 121 112 105 104 108 102 94 90 93 94 86 75 76 81 107 93 96 98 96 96 95 93 89 85 84 79 75 76 75 77 78
138 138 141 142 140 139 133 131 130 129 129 130 129 127 126 128 128 126 126 129 132 134 133 132 131 129 129 129 133 135 136 136 135 131 128 127 127 124 123 125 122 117 121 121 121 121 123 125 125 124 124 123 121 121 119 115 113 109 106 102 94 91 90 89 82 75 72 116 89 90 88 87 87 95 97 93 90 86 81 80 77 73 69 68 70
135 138 140 142 143 134 133 133 134 133 133 133 132 131 130 130 130 127 128 130 131 132 131 130 132 135 136 139 140 141 143 138 133 130 127 127 125 128 126 118 116 120 124 123 118 122 122 125 123 127 130 126 122 120 120 120 114 114 115 106 87 88 92 91 87 76 67 91 92 82 84 89 92 95 98 97 97 93 85 82 77 75 72 70 73
136 136 138 141 141 131 134 134 134 133 133 133 131 131 132 132 131 133 132 131 132 132 133 135 136 137 138 137 141 135 126 128 129 124 114 121 126 124 114 107 112 110 101 101 98 104 124 123 124 127 124 123 124 124 122 117 115 114 117 95 81 88 96 93 89 112 111 91 93 92 94 95 100 104 100 95 89 86 92 97 87 75 73 73 72
137 140 141 144 141 134 139 138 137 136 135 134 132 131 131 132 132 133 133 133 134 135 137 137 137 135 135 134 126 129 130 134 127 128 128 129 129 119 112 112 111 109 101 97 106 113 117 120 124 128 121 120 120 120 120 105 98 97 92 97 91 91 97 102 99 79 88 101 96 92 75 58 93 92 98 98 90 96 87 65 71 75 77 81 78
137 139 144 142 138 134 139 140 141 138 137 134 132 131 132 133 133 134 132 133 133 135 134 136 135 134 136 131 132 131 130 134 137 138 131 129 118 108 114 113 110 106 102 99 99 106 108 115 119 118 115 113 110 112 107 104 110 106 97 100 112 105 110 113 175 117 106 98 94 103 102 75 78 87 105 107 104 98 95 94 90 85 81 81 82
138 138 138 137 132 134 134 135 129 128 129 127 126 129 131 132 132 132 132 131 132 132 132 129 134 135 136 133 131 132 137 138 140 134 129 127 113 115 122 119 116 111 107 102 101 103 107 111 114 115 114 109 110 104 103 110 124 148 125 116 126 147 154 156 184 124 126 110 98 99 110 108 99 105 114 109 110 105 99 99 95 87 83 85 82
137 135 131 130 136 137 134 132 129 129 130 131 130 131 133 131 130 130 129 128 127 127 128 131 135 136 134 132 130 128 129 132 136 135 128 120 117 122 127 125 121 116 111 109 110 107 105 107 111 113 116 117 110 107 113 118 131 188 100 124 195 178 175 171 171 152 135 116 107 118 106 100 99 109 107 107 105 106 98 98 97 88 87 88 90
135 133 133 132 133 134 131 130 130 130 130 132 131 131 130 127 129 129 128 128 129 129 130 133 131 129 130 129 131 129 116 112 109 122 117 115 117 124 129 129 124 119 115 112 113 112 109 108 106 109 110 106 106 112 115 117 135 240 102 293 269 198 157 177 198 155 144 128 119 112 110 111 108 107 122 118 111 108 114 104 95 93 90 91 90
133 132 130 129 134 138 137 139 137 136 134 131 130 129 128 127 127 129 129 130 131 130 130 128 129 131 133 133 132 127 126 137 132 117 122 122 123 127 132 131 126 121 117 114 114 114 112 110 104 99 98 96 102 107 114 122 152 250 207 283 158 178 178 184 178 155 146 139 126 129 116 111 111 132 117 112 111 111 101 101 101 99 92 92 93
129 126 123 127 131 138 135 128 120 122 125 127 126 125 127 130 131 131 132 131 128 126 128 131 128 128 124 121 116 120 131 133 127 125 132 128 123 130 132 129 125 121 118 117 115 113 113 111 113 109 102 98 97 97 97 102 101 315 340 4 117 175 188 247 157 155 147 150 136 126 114 107 132 139 133 126 128 111 107 108 101 98 103 99 99
127 127 126 127 129 128 129 132 130 125 121 122 124 127 128 130 131 131 129 123 120 120 122 106 102 102 111 120 134 137 134 139 142 143 138 127 127 131 130 126 125 121 117 117 117 117 121 122 118 111 102 98 94 89 84 80 70 30 351 330 7 163 158 237 142 156 150 141 141 129 125 130 159 175 127 126 128 123 122 118 114 106 99 101 97
129 127 126 121 114 121 129 132 137 139 133 127 122 124 123 125 124 123 123 118 116 111 107 109 114 109 121 129 140 140 138 144 135 129 125 121 124 127 128 127 125 121 117 118 118 118 119 118 113 109 105 100 95 88 81 69 54 37 358 337 312 163 146 238 146 144 144 147 146 136 126 81 20 154 136 132 132 129 123 122 118 111 108 100 100
123 118 117 118 118 124 130 124 139 142 131 127 124 124 123 120 120 123 123 118 117 117 117 122 130 143 147 139 145 144 141 133 123 123 116 121 123 126 124 129 127 123 118 115 112 109 110 112 108 100 97 89 86 80 69 58 49 30 10 346 316 179 142 183 168 149 141 168 143 141 115 61 309 147 133 125 132 133 127 123 122 116 112 109 104
115 118 121 127 132 131 129 117 117 124 116 128 132 131 128 125 126 123 117 116 116 117 126 139 147 144 150 150 147 140 136 129 130 133 132 125 134 136 129 130 128 120 115 108 105 105 103 98 98 97 88 79 65 55 48 44 40 37 24 8 167 167 178 198 159 159 155 132 151 141 95 328 178 144 138 140 140 132 122 130 130 120 117 110 111
120 126 131 136 138 128 126 130 118 117 128 132 130 127 130 131 128 117 114 114 115 127 139 141 137 144 149 134 126 144 138 137 145 143 141 140 123 124 131 127 122 117 115 109 101 100 102 99 97 91 80 70 69 70 52 37 29 22 31 36 117 191 179 181 172 168 178 145 167 126 95 360 169 144 140 143 136 134 135 134 130 129 121 117 106
134 129 127 129 127 127 120 112 115 129 128 125 125 135 142 139 131 128 124 119 122 130 135 134 140 138 136 141 144 140 141 140 139 137 138 135 136 123 127 125 120 117 110 106 102 100 97 95 84 74 73 74 80 91 87 84 42 10 22 20 218 149 162 181 188 182 171 168 174 110 137 56 187 163 144 142 139 134 146 140 138 130 130 113 107
132 126 123 125 127 128 127 109 105 97 101 113 123 132 136 132 129 126 123 116 124 127 125 129 131 140 149 145 142 143 140 138 137 136 131 125 120 126 129 126 126 120 114 111 110 104 96 84 74 68 58 44 183 79 62 46 60 33 347 358 59 157 156 180 194 202 184 147 194 114 160 192 197 163 153 149 140 149 158 140 135 141 125 121 114
124 95 96 90 106 119 116 108 130 140 142 149 141 138 137 135 131 128 125 120 119 119 125 129 137 142 146 148 149 145 142 136 129 133 128 130 114 111 122 131 130 127 126 134 117 88 93 88 79 65 69 49 73 83 68 69 61 40 35 1 56 77 192 187 204 202 199 154 171 132 161 197 217 177 162 152 148 156 157 155 137 148 139 139 126
95 72 84 144 141 148 134 142 152 157 155 148 141 136 137 133 124 120 126 128 127 126 130 135 143 146 150 154 152 148 150 142 131 125 111 119 116 118 131 136 136 122 122 118 117 104 102 84 107 106 94 135 100 81 43 70 63 70 80 35 55 153 199 198 213 215 199 171 142 149 163 193 220 236 163 160 155 165 164 149 145 141 143 147 137
126 131 133 57 256 179 142 154 159 157 157 142 144 142 138 136 134 131 127 125 128 131 133 138 149 158 161 157 149 148 151 148 131 115 116 118 126 114 130 111 107 109 121 111 107 103 97 87 88 106 138 148 115 92 78 38 47 70 97 128 155 184 204 191 197 212 216 193 142 162 170 189 207 232 190 166 167 175 174 148 152 149 143 171 149
162 169 176 177 178 179 150 151 157 153 159 147 148 145 148 139 137 140 138 131 132 133 136 146 157 164 166 164 163 159 153 153 139 127 122 125 140 154 131 121 125 125 111 126 117 114 126 140 149 148 159 153 135 119 110 85 29 62 136 165 169 178 198 189 190 203 206 196 147 163 175 188 193 228 202 179 169 185 175 160 165 152 159 175 165
172 190 134 147 173 165 154 156 156 156 152 157 149 146 152 150 145 142 141 143 147 154 157 160 158 166 173 178 177 167 160 157 144 131 124 135 163 171 143 139 139 146 150 161 148 143 159 166 144 153 163 149 149 133 91 85 84 50 154 168 169 180 191 184 190 213 207 198 174 162 176 180 187 246 225 199 179 187 183 160 173 164 164 164 191
165 157 161 168 187 170 159 158 157 156 159 160 152 154 160 159 156 152 156 158 161 161 162 158 164 174 187 187 180 170 165 154 142 113 110 152 159 161 158 156 159 165 175 185 188 165 160 138 118 358 158 176 168 147 104 89 96 109 155 161 178 174 181 185 183 196 223 204 195 143 173 167 190 222 241 209 207 199 184 171 182 165 165 175 186
158 165 159 174 187 176 169 162 162 159 158 164 157 158 171 168 155 159 162 165 166 161 161 170 177 187 189 197 171 171 171 162 153 155 164 189 171 200 194 173 176 175 185 195 194 185 151 144 106 283 20 213 183 105 210 132 113 110 160 170 173 174 171 193 188 200 201 211 178 138 159 167 185 203 254 256 221 207 200 180 185 181 174 179 195
160 169 170 183 185 184 170 167 162 159 160 164 159 162 172 166 163 167 167 168 166 161 170 173 172 179 188 178 159 162 172 183 162 151 159 170 185 206 207 183 179 189 197 197 202 191 137 142 169 136 72 8 333 339 275 156 95 104 130 187 172 177 183 190 198 197 201 193 187 174 158 170 174 187 189 196 307 265 225 189 194 180 177 184 197
168 172 177 183 181 179 175 167 160 155 157 163 165 164 172 166 165 165 168 172 168 169 159 154 160 189 159 161 162 154 184 173 125 55 315 175 205 207 198 222 193 173 195 193 197 180 174 152 127 146 119 134 288 275 265 232 140 87 174 155 169 194 190 193 201 192 201 192 191 174 177 168 168 179 179 178 210 321 305 214 218 201 181 186 198
172 173 178 176 170 173 177 169 165 164 162 168 166 167 171 167 168 166 168 171 168 151 160 157 149 209 170 163 164 133 186 183 128 88 209 209 203 218 207 200 190 179 170 162 146 138 168 203 159 142 165 173 229 240 244 221 173 148 224 140 193 199 196 201 199 196 200 196 194 184 181 180 174 169 177 180 192 223 34 227 235 253 226 191 211
166 168 174 178 169 171 174 173 175 174 167 167 162 165 169 163 167 169 167 161 159 157 154 165 170 203 186 171 150 150 225 216 139 181 184 201 193 203 187 182 181 165 157 154 166 183 209 229 220 218 202 214 209 227 241 232 200 165 120 348 277 305 217 213 222 218 213 209 192 183 176 174 181 186 183 176 191 196 171 188 204 218 223 221 221
154 164 179 182 176 171 171 176 175 177 170 167 165 161 157 158 164 170 160 160 158 159 153 149 170 177 164 151 149 170 249 243 159 195 202 175 195 168 172 174 173 167 154 141 157 163 232 252 241 242 212 237 246 190 296 279 251 211 72 337 332 324 230 219 194 211 219 216 215 192 187 180 182 189 190 192 173 186 180 188 193 213 196 213 219
163 166 176 182 181 175 174 176 176 177 171 162 154 150 151 156 159 154 152 146 140 135 136 146 159 157 145 131 165 185 189 191 153 151 145 126 147 151 135 145 146 144 146 132 158 174 187 234 229 253 232 217 240 202 186 215 221 191 110 29 10 333 296 237 233 232 205 215 215 205 198 199 191 190 186 206 196 174 170 186 196 178 198 202 203
166 173 179 185 179 175 174 174 173 175 161 148 137 138 140 146 141 142 134 135 135 134 138 144 146 147 142 150 152 172 175 194 164 154 137 124 122 125 135 132 127 124 124 132 148 111 216 244 218 296 306 324 268 296 175 204 180 179 176 140 60 356 348 354 326 277 225 232 221 206 210 205 183 167 198 211 205 195 163 185 190 193 193 200 195
162 182 180 175 172 177 173 165 169 161 140 134 135 132 131 125 125 126 133 133 130 133 136 142 135 133 131 121 132 142 138 164 203 178 180 162 144 122 124 118 123 126 124 139 141 142 178 243 220 174 62 34 231 243 225 150 182 182 189 113 70 37 27 12 14 359 251 239 235 240 230 191 196 208 204 207 214 205 198 168 185 194 198 198 194
164 171 172 171 177 166 155 152 146 131 126 127 121 112 110 103 110 128 133 133 131 120 128 121 109 109 96 111 123 113 108 123 128 146 56 122 133 113 96 75 80 105 108 118 127 135 118 344 273 142 112 52 356 285 274 46 202 169 155 103 94 68 29 21 18 38 37 329 295 262 242 217 204 196 197 204 211 210 206 241 211 212 199 187 200
166 165 157 165 164 148 140 134 131 127 128 125 122 119 125 139 140 138 133 130 126 120 105 100 104 96 95 107 114 109 107 119 127 124 103 91 90 81 92 101 102 91 73 212 171 193 231 221 236 250 151 107 350 238 66 200 155 159 145 143 125 349 5 349 2 48 57 74 65 251 232 207 212 198 202 192 186 223 33 320 281 272 287 162 200
164 172 164 163 159 147 142 136 133 138 140 134 135 142 150 147 144 144 136 135 126 119 110 107 96 95 111 113 122 109 109 115 113 112 106 98 88 89 94 97 104 121 131 109 99 112 209 238 179 192 205 151 232 257 147 218 186 181 189 211 217 274 347 332 323 326 60 50 86 82 57 207 197 175 166 169 154 138 76 19 358 333 290 331 195
177 180 178 171 158 145 142 135 142 150 148 144 145 161 173 155 140 125 114 116 132 139 127 108 102 96 100 120 132 127 134 113 111 113 110 107 111 113 115 119 123 127 124 130 131 145 144 141 137 143 181 201 211 243 172 213 205 217 196 210 231 235 242 230 226 224 306 185 328 6 29 39 79 82 89 94 74 86 128 172 218 139 120 126 309
169 177 184 162 144 145 142 143 156 156 151 149 159 159 132 85 70 109 113 103 51 69 97 102 112 105 86 81 86 126 146 132 133 129 121 108 108 112 112 114 115 110 110 109 139 128 121 117 146 147 159 129 151 138 200 229 237 213 221 231 221 223 189 217 198 190 282 275 272 243 240 189 112 75 93 90 89 77 88 152 179 127 133 163 250
159 174 184 173 157 157 156 159 160 153 152 158 129 100 82 70 64 86 84 106 127 121 109 110 102 102 89 71 70 80 136 135 143 142 129 117 110 104 106 108 108 103 92 89 89 94 149 151 157 137 124 154 191 159 148 186 264 189 219 237 260 255 243 206 219 191 299 283 294 277 295 301 327 119 67 44 65 69 75 28 300 158 190 196 194
164 148 121 137 133 166 167 165 159 153 162 148 130 117 109 106 107 106 110 108 126 130 116 96 92 96 108 84 60 58 113 120 129 126 122 120 108 87 88 92 97 104 102 92 90 74 74 65 80 164 183 201 178 166 133 133 164 237 292 194 203 227 249 57 241 208 233 205 136 290 63 350 5 22 30 48 66 69 107 111 137 191 226 206 186
113 97 93 77 84 56 39 31 13 1 148 145 128 125 133 142 146 147 149 148 140 148 138 126 127 119 95 77 77 55 82 102 109 115 107 115 101 94 91 108 116 118 107 77 86 106 93 91 90 69 105 192 207 165 144 93 49 46 323 321 352 330 349 86 246 182 133 55 23 60 47 34 26 44 55 61 63 63 64 72 96 94 65 317 283
108 104 101 104 114 119 128 137 162 222 1 25 103 112 134 159 164 161 156 153 140 105 83 100 113 105 102 92 85 74 61 102 99 94 101 93 101 107 111 94 77 89 99 113 88 81 97 80 105 110 83 109 149 118 149 153 137 104 58 34 37 43 35 324 262 223 196 112 59 49 52 46 40 41 59 69 70 71 80 84 66 52 42 19 18
114 121 131 138 132 135 141 183 168 118 94 82 101 153 157 166 157 139 136 142 141 135 134 116 107 116 110 100 102 90 79 79 100 97 96 96 89 90 88 85 80 72 71 64 69 95 124 119 88 24 360 30 34 37 93 187 232 135 69 54 46 19 44 63 337 279 326 183 122 95 77 58 58 41 34 43 48 52 53 45 43 43 41 51 54
127 137 139 132 132 149 175 130 99 97 111 136 180 204 187 151 143 137 124 114 118 122 122 121 119 118 111 103 91 88 79 66 72 93 88 87 83 84 84 79 66 66 65 78 65 51 46 74 91 86 72 61 43 46 65 93 153 151 190 191 171 74 109 132 180 125 162 128 105 113 107 89 63 43 36 39 48 54 58 51 41 42 34 29 40
150 150 144 139 158 159 112 127 145 139 141 147 177 182 153 122 136 145 142 143 134 127 131 125 125 128 112 102 97 92 89 89 74 69 81 78 77 79 79 72 68 61 53 60 73 73 61 64 59 70 80 94 86 78 68 94 94 83 52 80 121 140 156 144 133 113 86 36 127 108 80 104 81 60 56 50 41 61 58 54 50 47 47 43 35
154 134 127 157 166 158 152 148 146 126 133 149 163 174 158 165 150 158 147 147 147 142 138 135 133 135 124 115 108 96 85 94 96 82 70 79 81 74 74 70 60 54 54 54 46 52 64 72 76 75 65 49 76 93 98 96 108 92 103 85 74 55 61 81 78 139 142 132 127 111 104 99 104 97 71 57 47 63 62 55 49 44 45 50 51